Weather History for Doncaster Sheffield, United Kingdom

Change the Weather History Date:

Friday, November 23, 2012

  Actual Average Record
Temperature  
Mean Temperature 44 °F -  
Max Temperature 50 °F - - ()
Min Temperature 37 °F - - ()
Degree Days  
Heating Degree Days 22    
Moisture  
Dew Point 39 °F    
Average Humidity 85    
Maximum Humidity 93    
Minimum Humidity 71    
Precipitation  
Precipitation 0.00 in - - ()
Sea Level Pressure  
Sea Level Pressure 29.84 in    
Wind  
Wind Speed 10 mph ()    
Max Wind Speed 16 mph    
Max Gust Speed -    
Visibility 6.2 miles    
Events      
T = Trace of Precipitation, MM = Missing Value Source: Averaged Metar Reports

Daily Weather History Graph

Daily Weather History Graph

Search for Another Location

Airport:

Trip Planner

Search our weather history database for the weather conditions in past years. The results will help you decide how hot, cold, wet, or windy it might be!

Date:

Astronomy

Nov. 23, 2012 Rise Set
Actual Time 7:44 AM GMT 3:56 PM GMT
Civil Twilight 7:04 AM GMT 4:36 PM GMT
Nautical Twilight 6:20 AM GMT 5:20 PM GMT
Astronomical Twilight 5:38 AM GMT 6:01 PM GMT
Moon 1:36 PM GMT (11/23) 2:11 AM GMT (11/23)
Length of Visible Light 9h 32m
Length of Day
8h 11m
Waxing Gibbous, 78% of the Moon is Illuminated
Nov 23
Waxing Gibbous
Nov 28
Full
Dec 6
Last Quarter
Dec 13
New
Dec 20
First Quarter

Hourly Weather History & Observations

Time (GMT) Temp. Windchill Dew Point Humidity Pressure Visibility Wind Dir Wind Speed Gust Speed Precip Events Conditions
12:20 AM 44.6 °F 37.8 °F 42.8 °F 93% 29.59 in - South 15.0 mph - N/A   Clear
12:50 AM 44.6 °F 37.4 °F 41.0 °F 87% 29.59 in - South 16.1 mph - N/A   Clear
5:20 AM 39.2 °F 34.2 °F 37.4 °F 93% 29.68 in - South 6.9 mph - N/A   Clear
5:50 AM 39.2 °F 33.6 °F 37.4 °F 93% 29.68 in - SSW 8.1 mph - N/A   Clear
6:20 AM 39.2 °F 32.0 °F 37.4 °F 93% 29.71 in - SSW 11.5 mph - N/A   Clear
6:50 AM 39.2 °F 32.5 °F 35.6 °F 87% 29.71 in - SSW 10.4 mph - N/A   Clear
7:20 AM 39.2 °F 32.0 °F 35.6 °F 87% 29.71 in - SSW 11.5 mph - N/A   Clear
7:50 AM 41.0 °F 33.5 °F 37.4 °F 87% 29.74 in - SSW 13.8 mph - N/A   Clear
8:20 AM 41.0 °F 33.1 °F 37.4 °F 87% 29.77 in - SSW 15.0 mph - N/A   Clear
8:50 AM 42.8 °F 36.6 °F 39.2 °F 87% 29.77 in - South 11.5 mph - N/A   Clear
9:20 AM 44.6 °F 39.7 °F 39.2 °F 81% 29.80 in - South 9.2 mph - N/A   Clear
9:50 AM 44.6 °F 39.7 °F 39.2 °F 81% 29.80 in - SW 9.2 mph - N/A   Clear
10:20 AM 46.4 °F 41.1 °F 41.0 °F 81% 29.83 in - SW 11.5 mph - N/A   Clear
10:50 AM 48.2 °F - 41.0 °F 76% 29.83 in - SSW 11.5 mph - N/A   Clear
11:20 AM 48.2 °F - 42.8 °F 82% 29.83 in - SSW 11.5 mph - N/A   Clear
11:50 AM 48.2 °F - 41.0 °F 76% 29.83 in - SSW 10.4 mph - N/A   Clear
12:20 PM 48.2 °F - 42.8 °F 82% 29.83 in - SSW 10.4 mph - N/A   Clear
12:50 PM 48.2 °F - 41.0 °F 76% 29.86 in - SSW 11.5 mph - N/A   Clear
1:20 PM 48.2 °F - 41.0 °F 76% 29.86 in 6.2 mi South 11.5 mph - N/A   Partly Cloudy
1:50 PM 50.0 °F - 42.8 °F 76% 29.86 in 6.2 mi SSW 13.8 mph - N/A   Partly Cloudy
2:20 PM 48.2 °F - 41.0 °F 76% 29.83 in 6.2 mi SSW 12.7 mph - N/A   Partly Cloudy
2:50 PM 50.0 °F - 41.0 °F 71% 29.83 in 6.2 mi South 10.4 mph - N/A   Partly Cloudy
3:20 PM 46.4 °F 42.9 °F 41.0 °F 81% 29.86 in 6.2 mi South 6.9 mph - N/A   Partly Cloudy
3:50 PM 44.6 °F 40.7 °F 41.0 °F 87% 29.86 in 6.2 mi South 6.9 mph - N/A   Partly Cloudy
4:20 PM 46.4 °F 42.9 °F 41.0 °F 81% 29.86 in 6.2 mi South 6.9 mph - N/A   Partly Cloudy
4:50 PM 46.4 °F 41.1 °F 41.0 °F 81% 29.89 in 6.2 mi SSW 11.5 mph - N/A   Partly Cloudy
5:20 PM 41.0 °F 35.8 °F 37.4 °F 87% 29.89 in 6.2 mi South 8.1 mph - N/A   Partly Cloudy
5:50 PM 41.0 °F 38.0 °F 37.4 °F 87% 29.89 in 6.2 mi South 4.6 mph - N/A   Partly Cloudy
6:20 PM 39.2 °F 37.0 °F 37.4 °F 93% 29.89 in - South 3.5 mph - N/A   Clear
6:50 PM 41.0 °F 37.1 °F 37.4 °F 87% 29.89 in - South 5.8 mph - N/A   Clear
7:20 PM 39.2 °F - 35.6 °F 87% 29.89 in - Variable 1.2 mph - N/A   Clear
7:50 PM 41.0 °F 35.8 °F 37.4 °F 87% 29.92 in - SSW 8.1 mph - N/A   Clear
8:20 PM 41.0 °F 36.4 °F 37.4 °F 87% 29.92 in - SSW 6.9 mph - N/A   Clear
8:50 PM 41.0 °F 34.3 °F 39.2 °F 93% 29.92 in - SSW 11.5 mph - N/A   Clear
9:20 PM 41.0 °F 34.3 °F 39.2 °F 93% 29.95 in - SSW 11.5 mph - N/A   Clear
9:50 PM 41.0 °F 34.7 °F 37.4 °F 87% 29.95 in - SSW 10.4 mph - N/A   Clear
10:20 PM 39.2 °F 32.0 °F 35.6 °F 87% 29.95 in - SSW 11.5 mph - N/A   Clear
10:50 PM 39.2 °F 33.0 °F 37.4 °F 93% 29.98 in - SW 9.2 mph - N/A   Clear
11:20 PM 37.4 °F 34.9 °F 35.6 °F 93% 29.98 in - Variable 3.5 mph - N/A   Clear
11:50 PM 39.2 °F 35.9 °F 37.4 °F 93% 29.98 in - SE 4.6 mph - N/A   Clear